Temp
48 47 46 45 44 42 41 40 40 39 40 40 40 40 40 40 40 40 38 38 37 37
47 46 45 45 45 42 42 42 39 38 39 40 40 39 39 38 38 39 39 38 38 37
47 47 46 45 44 42 42 41 38 38 39 39 38 38 38 38 39 38 38 38 37 37
46 46 46 45 44 43 41 40 37 38 38 38 37 37 37 37 38 37 36 37 36 35
46 46 45 44 44 44 42 41 38 38 38 38 36 36 36 36 37 36 34 35 35 34
45 45 44 44 44 44 43 41 39 38 37 37 35 35 36 37 36 36 35 35 34 33
44 44 44 44 44 43 44 42 40 38 38 37 35 36 36 36 36 36 35 35 35 33
45 46 45 44 44 44 43 43 42 40 38 36 36 36 35 37 36 35 35 34 35 34
47 47 44 44 43 43 42 42 41 39 38 34 36 35 36 37 36 35 34 31 33 34
47 46 44 45 44 42 40 40 39 38 38 34 33 35 36 37 37 35 34 31 32 33
47 45 45 44 42 41 41 40 39 38 38 36 35 35 35 37 39 36 35 34 32 32
47 45 44 42 41 41 40 40 39 40 38 36 33 36 35 36 35 35 34 35 34 33
47 45 43 41 41 41 41 41 41 40 38 38 35 35 36 35 33 32 32 33 34 35
47 44 44 42 42 41 40 40 38 38 37 36 34 33 35 36 33 31 31 30 30 32
MSLP
1026.81 1026.73 1026.51 1026.28 1026.05 1026.17 1026.16 1025.95 1025.87 1025.40 1024.58 1023.77 1022.92 1022.07 1021.28 1020.53 1019.99 1019.45 1018.90 1018.27 1017.64 1016.86
1027.07 1026.93 1026.76 1026.53 1026.28 1026.47 1026.41 1026.17 1026.27 1025.77 1024.93 1024.12 1023.38 1022.54 1021.76 1021.16 1020.56 1019.91 1019.38 1018.84 1018.08 1017.41
1027.35 1027.16 1026.97 1026.75 1026.66 1026.66 1026.66 1026.55 1026.66 1026.11 1025.24 1024.52 1023.88 1023.10 1022.30 1021.71 1021.09 1020.44 1019.92 1019.30 1018.58 1017.76
1027.58 1027.45 1027.24 1027.08 1026.94 1026.80 1026.86 1026.76 1026.99 1026.45 1025.69 1025.08 1024.46 1023.65 1022.89 1022.23 1021.64 1021.07 1020.63 1019.90 1019.27 1018.66
1027.82 1027.73 1027.59 1027.36 1027.19 1026.87 1026.87 1026.91 1027.10 1026.76 1026.18 1025.59 1025.14 1024.33 1023.47 1022.74 1022.24 1021.76 1021.26 1020.65 1019.86 1019.25
1028.05 1028.01 1027.89 1027.72 1027.46 1027.16 1026.83 1026.89 1026.98 1026.87 1026.51 1026.01 1025.74 1024.96 1024.22 1023.51 1022.95 1022.56 1022.15 1021.68 1020.84 1020.11
1028.22 1028.27 1028.17 1028.08 1027.79 1027.55 1027.12 1026.93 1026.85 1026.81 1026.57 1026.51 1026.30 1025.66 1024.90 1024.10 1023.60 1023.12 1022.67 1022.26 1021.65 1021.15
1028.31 1028.38 1028.34 1028.26 1028.06 1027.83 1027.53 1027.19 1027.01 1026.94 1026.77 1027.01 1026.60 1026.27 1025.61 1024.72 1024.12 1023.70 1023.40 1023.08 1022.59 1021.93
1028.42 1028.47 1028.46 1028.43 1028.37 1028.18 1028.02 1027.71 1027.53 1027.49 1027.31 1027.50 1027.29 1026.82 1026.00 1025.05 1024.62 1024.31 1023.91 1023.57 1023.02 1022.56
1028.58 1028.65 1028.69 1028.71 1028.73 1028.53 1028.36 1028.13 1028.02 1028.00 1027.92 1028.01 1028.11 1027.30 1026.24 1025.26 1024.90 1024.74 1024.52 1024.44 1023.70 1023.27
1028.84 1028.95 1029.07 1029.08 1029.07 1028.93 1028.74 1028.49 1028.35 1028.45 1028.46 1028.43 1028.65 1028.08 1027.21 1025.91 1025.33 1025.51 1025.38 1025.04 1024.72 1024.12
1029.24 1029.31 1029.45 1029.47 1029.37 1029.29 1029.17 1028.94 1028.73 1028.87 1028.85 1028.89 1029.14 1028.62 1028.01 1026.99 1026.60 1026.13 1026.05 1025.78 1025.63 1024.96
1029.66 1029.72 1029.80 1029.89 1029.80 1029.76 1029.66 1029.55 1029.34 1029.31 1029.34 1029.32 1029.53 1029.42 1028.69 1028.03 1027.65 1027.13 1027.03 1026.68 1026.21 1025.48
1029.88 1029.97 1030.10 1030.22 1030.25 1030.18 1030.17 1030.12 1029.99 1029.92 1029.94 1029.96 1030.11 1030.11 1029.52 1028.80 1028.30 1027.95 1027.74 1027.22 1026.75 1026.34
Wind_Speed
10 7 7 8 8 8 8 9 12 13 13 15 15 14 13 9 10 12 10 13 12 9
8 8 8 9 8 7 9 9 12 13 14 14 15 15 15 10 12 11 12 11 12 11
8 8 7 8 9 9 9 10 12 13 14 14 15 15 14 11 12 13 11 10 13 13
7 8 7 8 8 8 8 10 12 13 14 14 15 15 13 13 14 14 14 14 13 15
7 7 7 8 8 7 8 9 11 13 13 13 15 15 14 14 14 15 15 15 13 16
7 7 8 8 8 9 7 8 8 10 13 13 15 14 14 14 14 14 14 15 13 16
6 6 7 7 7 8 8 8 7 7 11 13 13 15 15 13 13 13 14 15 14 16
5 6 6 6 6 7 8 8 9 10 9 13 13 13 16 11 12 13 14 16 15 16
6 7 6 6 7 7 8 8 9 11 10 13 12 26 26 14 11 13 14 16 15 15
7 8 7 8 8 7 7 7 9 10 13 13 15 28 29 18 10 11 13 15 15 14
7 8 8 8 8 7 6 7 7 9 11 11 13 26 28 21 11 11 14 13 16 16
7 8 8 8 7 7 6 6 7 9 10 12 13 25 26 19 13 12 13 13 14 15
7 8 7 7 6 6 6 8 6 9 9 14 13 24 24 20 10 10 10 11 13 22
6 6 6 6 6 6 7 7 7 8 9 11 13 15 24 23 11 8 9 10 10 11
Wind_Direction
23 6 10 9 23 30 6 3 10 348 344 350 352 353 350 352 0 358 4 2 1 349
23 9 13 13 27 32 14 8 15 348 347 356 358 356 357 0 2 4 8 6 1 1
17 15 14 16 25 35 23 16 19 350 352 1 2 359 1 358 3 8 10 4 10 6
19 17 16 19 21 32 33 26 19 354 358 7 3 0 0 0 7 13 12 5 14 6
23 21 17 19 17 19 42 37 27 5 3 10 7 359 1 4 11 15 10 5 11 10
27 22 17 17 18 9 21 49 39 20 9 10 7 4 0 1 13 13 13 9 11 12
30 30 22 19 15 16 12 21 42 35 16 14 15 6 360 2 12 13 16 14 15 15
37 42 27 28 12 27 14 20 24 18 39 26 18 5 4 7 11 16 21 18 16 19
45 41 34 28 28 25 22 21 27 31 17 37 11 4 7 5 19 24 23 20 15 20
47 46 37 32 33 24 29 19 34 37 17 48 19 9 4 3 36 31 27 28 15 19
48 49 40 36 31 26 26 26 37 32 37 42 28 18 9 0 23 39 31 33 21 18
46 48 45 37 28 26 27 25 29 41 39 34 41 23 17 10 12 26 26 23 21 21
48 51 48 44 24 29 34 26 28 40 32 49 36 25 20 18 15 22 24 18 20 21
52 75 47 50 32 32 35 33 32 34 36 35 45 27 22 18 17 14 25 18 14 18